Weather History for De Queen, AR

Change the Weather History Date:

Tuesday, May 21, 2013

  Actual Average Record
Temperature  
Mean Temperature 67 °F 71 °F  
Max Temperature 71 °F 82 °F 91 °F (1964)
Min Temperature 62 °F 60 °F 43 °F (1981)
Degree Days  
Heating Degree Days 0 0  
Month to date heating degree days 69 21  
Since 1 July heating degree days 3050 3042  
Cooling Degree Days 2 6  
Month to date cooling degree days 67 93  
Year to date cooling degree days 127 140  
Growing Degree Days 16 (Base 50)    
Moisture  
Dew Point 62 °F    
Average Humidity 87    
Maximum Humidity 93    
Minimum Humidity 81    
Precipitation  
Precipitation 1.30 in 0.14 in 2.05 in (1985)
Month to date precipitation 3.49 4.21  
Year to date precipitation 10.77 19.78  
Snow  
Snow 0.00 in - - ()
Month to date snowfall 0.0  
Since 1 July snowfall 4.5  
Snow Depth 0.00 in    
Sea Level Pressure  
Sea Level Pressure 29.82 in    
Wind  
Wind Speed 8 mph (ENE)    
Max Wind Speed 22 mph    
Max Gust Speed 32 mph    
Visibility 7 miles    
Events Rain    
T = Trace of Precipitation, MM = Missing Value Source: NWS Daily Summary

Daily Weather History Graph

Daily Weather History Graph

Search for Another Location

Airport:

Trip Planner

Search our weather history database for the weather conditions in past years. The results will help you decide how hot, cold, wet, or windy it might be!

Date:

Astronomy

May. 21, 2013 Rise Set
Actual Time 6:11 AM CDT 8:16 PM CDT
Civil Twilight 5:43 AM CDT 8:44 PM CDT
Nautical Twilight 5:09 AM CDT 9:19 PM CDT
Astronomical Twilight 4:32 AM CDT 9:56 PM CDT
Moon 4:40 PM CDT (5/21) 3:29 AM CDT (5/21)
Length of Visible Light 15h 01m
Length of Day
14h 04m
Waxing Gibbous, 84% of the Moon is Illuminated
May 21
Waxing Gibbous
May 24
Full
May 31
Last Quarter
Jun 8
New
Jun 16
First Quarter

Hourly Weather History & Observations

Time (CDT) Temp. Dew Point Humidity Pressure Visibility Wind Dir Wind Speed Gust Speed Precip Events Conditions
12:53 AM 66.9 °F 63.0 °F 87% 29.82 in 10.0 mi NE 5.8 mph - N/A   Mostly Cloudy
1:53 AM 66.9 °F 63.0 °F 87% 29.80 in 10.0 mi East 5.8 mph - N/A   Overcast
2:53 AM 68.0 °F 63.0 °F 84% 29.77 in 10.0 mi ENE 6.9 mph - N/A   Overcast
3:32 AM 69.1 °F 64.0 °F 84% 29.80 in 10.0 mi ENE 4.6 mph - N/A   Overcast
3:53 AM 70.0 °F 64.9 °F 84% 29.79 in 10.0 mi East 4.6 mph - N/A   Overcast
4:53 AM 69.1 °F 66.0 °F 90% 29.82 in 8.0 mi ENE 6.9 mph - 0.00 in   Overcast
5:53 AM 66.9 °F 64.9 °F 93% 29.81 in 9.0 mi ENE 6.9 mph - 0.00 in   Overcast
6:53 AM 66.0 °F 63.0 °F 90% 29.82 in 8.0 mi ENE 8.1 mph - N/A   Overcast
7:53 AM 66.9 °F 63.0 °F 87% 29.81 in 9.0 mi East 6.9 mph - N/A   Overcast
8:26 AM 66.9 °F 64.0 °F 90% 29.81 in 9.0 mi East 8.1 mph - N/A   Overcast
8:39 AM 68.0 °F 64.0 °F 87% 29.81 in 9.0 mi East 9.2 mph - N/A   Overcast
8:53 AM 68.0 °F 64.9 °F 90% 29.80 in 9.0 mi East 8.1 mph - N/A   Overcast
9:11 AM 69.1 °F 64.9 °F 87% 29.82 in 9.0 mi East 10.4 mph - N/A   Overcast
9:53 AM 70.0 °F 66.0 °F 87% 29.82 in 8.0 mi ENE 5.8 mph - N/A   Overcast
10:12 AM 71.1 °F 66.9 °F 87% 29.84 in 8.0 mi ENE 5.8 mph - N/A   Overcast
10:53 AM 71.1 °F 68.0 °F 90% 29.86 in 8.0 mi North 6.9 mph - 0.00 in   Overcast
11:53 AM 64.0 °F 59.0 °F 84% 29.88 in 10.0 mi ENE 6.9 mph 16.1 mph 0.03 in   Overcast
12:28 PM 63.0 °F 60.1 °F 90% 29.87 in 1.8 mi ENE 12.7 mph - 0.14 in Rain Heavy Rain
12:38 PM 63.0 °F 60.1 °F 90% 29.87 in 3.0 mi NE 10.4 mph - 0.16 in Rain Light Rain
12:53 PM 63.0 °F 60.1 °F 90% 29.87 in 7.0 mi NNE 8.1 mph - 0.17 in Rain Light Rain
1:04 PM 63.0 °F 60.1 °F 90% 29.89 in 1.8 mi NNW 4.6 mph - 0.05 in Rain Rain
1:35 PM 62.1 °F 61.0 °F 96% 29.87 in 2.5 mi East 8.1 mph - 0.24 in Rain Rain
1:53 PM 62.1 °F 60.1 °F 93% 29.83 in 6.0 mi ESE 9.2 mph - 0.27 in Rain Light Rain
2:53 PM 64.0 °F 61.0 °F 90% 29.78 in 10.0 mi ESE 12.7 mph 23.0 mph 0.00 in   Mostly Cloudy
3:53 PM 64.0 °F 61.0 °F 90% 29.76 in 10.0 mi East 5.8 mph - 0.00 in   Overcast
4:53 PM 63.0 °F 59.0 °F 87% 29.84 in 1.8 mi North 17.3 mph 32.2 mph 0.15 in Rain Heavy Rain
5:12 PM 62.1 °F 59.0 °F 90% 29.89 in 0.8 mi Calm Calm - 0.26 in Rain Heavy Rain
5:22 PM 62.1 °F 59.0 °F 90% 29.89 in 2.0 mi NNE 6.9 mph - 0.32 in Rain Rain
5:30 PM 62.1 °F 59.0 °F 90% 29.85 in 5.0 mi NE 8.1 mph - 0.33 in Rain Rain
5:53 PM 62.1 °F 60.1 °F 93% 29.81 in 5.0 mi ENE 13.8 mph - 0.36 in Rain Light Rain
6:53 PM 62.1 °F 59.0 °F 90% 29.81 in 5.0 mi ENE 9.2 mph - 0.20 in Rain Rain
7:53 PM 62.1 °F 60.1 °F 93% 29.73 in 7.0 mi ESE 13.8 mph - 0.12 in Rain Rain
8:50 PM 62.6 °F 60.8 °F 94% 29.78 in 10.0 mi West 4.6 mph - 0.00 in   Mostly Cloudy
8:53 PM 62.1 °F 60.1 °F 93% 29.76 in 10.0 mi WSW 6.9 mph - 0.00 in   Mostly Cloudy
9:53 PM 62.1 °F 61.0 °F 96% 29.77 in 10.0 mi Calm Calm - N/A   Overcast
10:01 PM 62.1 °F 61.0 °F 96% 29.77 in 10.0 mi Calm Calm - N/A   Overcast
10:53 PM 62.1 °F 60.1 °F 93% 29.80 in 10.0 mi WNW 8.1 mph - N/A   Overcast
11:53 PM 63.0 °F 61.0 °F 93% 29.82 in 10.0 mi WNW 4.6 mph - N/A   Overcast